Dickinson, ND

3:35 PM MST on November 19, 2017 (GMT -0700)
Dickinson Municipal

Weather History for KDIK - January, 2013

Change the Weather History Date:

Thursday, January 3, 2013

  Actual Average Record
Temperature  
Mean Temperature 20 °F 16 °F  
Max Temperature 28 °F 26 °F 53 °F (1962)
Min Temperature 12 °F 6 °F -31 °F (1919)
Degree Days  
Heating Degree Days 45 49  
Month to date heating degree days 138 147  
Since 1 July heating degree days 3529 3684  
Cooling Degree Days 0 0  
Month to date cooling degree days 0 0  
Year to date cooling degree days 0 0  
Moisture  
Dew Point 12 °F    
Average Humidity 69    
Maximum Humidity 88    
Minimum Humidity 50    
Precipitation  
Precipitation 0.00 in 0.01 in 0.40 in (1897)
Month to date precipitation 0.01 0.03  
Year to date precipitation 0.01 0.03  
Sea Level Pressure  
Sea Level Pressure 30.19 in    
Wind  
Wind Speed 15 mph (West)    
Max Wind Speed 22 mph    
Max Gust Speed 26 mph    
Visibility 10 miles    
Events      
T = Trace of Precipitation, MM = Missing Value Source: NWS Daily Summary

Daily Weather History Graph

Daily Weather History Graph

Search for Another Location

Airport or City:

Trip Planner

Search our weather history database for the weather conditions in past years. The results will help you decide how hot, cold, wet, or windy it might be!

Date:

Astronomy

Jan. 03, 2013 Rise Set
Actual Time 7:36 AM MST 4:15 PM MST
Civil Twilight 7:01 AM MST 4:50 PM MST
Nautical Twilight 6:22 AM MST 5:29 PM MST
Astronomical Twilight 5:46 AM MST 6:06 PM MST
Moon 11:21 PM MST (1/3) 10:23 AM MST (1/3)
Length of Visible Light 9h 49m
Length of Day
8h 39m
Waning Gibbous, 65% of the Moon is Illuminated
Jan 3
Waning Gibbous
Jan 4
Last Quarter
Jan 11
New
Jan 18
First Quarter
Jan 26
Full

Hourly Weather History & Observations

Time (MST) Temp. Windchill Dew Point Humidity Pressure Visibility Wind Dir Wind Speed Gust Speed Precip Events Conditions
12:56 AM 17.1 °F 5.8 °F 12.9 °F 84% 30.32 in 10.0 mi West 9.2 mph - N/A   Overcast
1:56 AM 18.0 °F 3.6 °F 14.0 °F 84% 30.34 in 10.0 mi WNW 15.0 mph - N/A   Overcast
2:56 AM 18.0 °F 4.8 °F 14.0 °F 84% 30.33 in 10.0 mi WNW 12.7 mph - N/A   Overcast
3:56 AM 18.0 °F 3.6 °F 14.0 °F 84% 30.30 in 10.0 mi West 15.0 mph - N/A   Overcast
4:42 AM 19.4 °F 6.0 °F 15.8 °F 86% 30.17 in 10.0 mi West 13.8 mph - N/A   Overcast
4:56 AM 19.0 °F 4.5 °F 15.1 °F 85% 30.29 in 10.0 mi West 16.1 mph - N/A   Overcast
5:49 AM 15.8 °F 3.4 °F 12.2 °F 86% 30.16 in 10.0 mi West 10.4 mph - N/A   Scattered Clouds
6:56 AM 12.0 °F -1.3 °F 9.0 °F 88% 30.26 in 10.0 mi WSW 10.4 mph - N/A   Clear
7:56 AM 14.0 °F -0.8 °F 9.0 °F 80% 30.26 in 10.0 mi West 13.8 mph - N/A   Clear
8:56 AM 12.9 °F -2.2 °F 7.0 °F 77% 30.25 in 10.0 mi WSW 13.8 mph - N/A   Clear
9:56 AM 18.0 °F 3.1 °F 10.0 °F 71% 30.24 in 10.0 mi West 16.1 mph - N/A   Clear
10:56 AM 21.9 °F 8.2 °F 10.9 °F 63% 30.21 in 10.0 mi West 16.1 mph - N/A   Clear
11:56 AM 24.1 °F 11.5 °F 12.0 °F 60% 30.18 in 10.0 mi West 15.0 mph - N/A   Clear
12:56 PM 26.1 °F 12.3 °F 12.9 °F 58% 30.14 in 10.0 mi West 19.6 mph - N/A   Clear
1:56 PM 27.0 °F 13.9 °F 12.9 °F 56% 30.12 in 10.0 mi West 18.4 mph - N/A   Clear
2:56 PM 28.0 °F 15.7 °F 12.9 °F 53% 30.12 in 10.0 mi West 17.3 mph - N/A   Clear
3:56 PM 24.1 °F 12.5 °F 12.0 °F 60% 30.13 in 10.0 mi SW 12.7 mph - N/A   Clear
4:56 PM 26.1 °F 15.6 °F 12.0 °F 55% 30.11 in 10.0 mi West 11.5 mph - N/A   Clear
5:56 PM 24.1 °F 12.5 °F 10.9 °F 57% 30.12 in 10.0 mi West 12.7 mph - N/A   Clear
6:56 PM 23.0 °F 9.6 °F 10.9 °F 60% 30.13 in 10.0 mi West 16.1 mph - N/A   Clear
7:56 PM 24.1 °F 10.6 °F 10.9 °F 57% 30.12 in 10.0 mi West 17.3 mph - N/A   Clear
8:56 PM 21.9 °F 7.3 °F 10.0 °F 60% 30.14 in 10.0 mi West 18.4 mph - N/A   Clear
9:56 PM 19.0 °F 5.0 °F 9.0 °F 65% 30.14 in 10.0 mi West 15.0 mph - N/A   Clear
10:56 PM 18.0 °F 4.8 °F 9.0 °F 68% 30.14 in 10.0 mi West 12.7 mph - N/A   Clear
11:56 PM 19.9 °F 6.2 °F 10.0 °F 65% 30.13 in 10.0 mi West 15.0 mph - N/A   Clear